ASA7015 PASC-PABR

Flight info

Callsign ASA7015
Flight time 0h 42m
Altitude 24000
Route SCC OKIKE SEJYY BRW
Aircraft B738/M-SDE2E3FGHIRWXY/LB1

Departure

Time 2026-05-01 09:31
Airport Deadhorse Airport (PASC)

Arrival

Time 2026-05-01 10:13
Airport Wiley Post Will Rogers Memorial Airport (PABR)
Time Latitude Longitude Altitude Speed Heading
2026-05-01 09:07 70.19844 -148.46015 77 ft 0 kts 73°
2026-05-01 09:22 70.19844 -148.46018 77 ft 2 kts 72°
2026-05-01 09:23 70.19854 -148.46019 77 ft 4 kts 20°
2026-05-01 09:23 70.19840 -148.46064 74 ft 0 kts 70°
2026-05-01 09:25 70.19380 -148.47540 77 ft 0 kts 76°
2026-05-01 09:27 70.19380 -148.47539 77 ft 0 kts 76°
2026-05-01 09:28 70.19397 -148.47513 76 ft 7 kts
2026-05-01 09:28 70.19482 -148.47572 75 ft 16 kts 344°
2026-05-01 09:28 70.19528 -148.47811 73 ft 15 kts 257°
2026-05-01 09:28 70.19500 -148.48126 72 ft 18 kts 255°
2026-05-01 09:29 70.19416 -148.49014 77 ft 9 kts 247°
2026-05-01 09:29 70.19365 -148.49090 73 ft 10 kts 172°
2026-05-01 09:30 70.19257 -148.48899 74 ft 4 kts 74°
2026-05-01 09:30 70.19258 -148.48892 75 ft 0 kts 73°
2026-05-01 09:30 70.19274 -148.48719 81 ft 43 kts 75°
2026-05-01 09:31 70.19455 -148.46778 110 ft 145 kts 76°
2026-05-01 09:31 70.19759 -148.43675 1126 ft 164 kts 73°
2026-05-01 09:31 70.21598 -148.38655 2806 ft 224 kts 11°
2026-05-01 09:32 70.23193 -148.39418 3624 ft 243 kts 337°
2026-05-01 09:32 70.25380 -148.47425 5732 ft 266 kts 294°
2026-05-01 09:32 70.26133 -148.52427 6844 ft 273 kts 293°
2026-05-01 09:33 70.26885 -148.57594 8054 ft 275 kts 292°
2026-05-01 09:33 70.27650 -148.62864 9194 ft 282 kts 294°
2026-05-01 09:33 70.29253 -148.73877 10956 ft 310 kts 292°
2026-05-01 09:34 70.30151 -148.80048 11235 ft 341 kts 292°
2026-05-01 09:34 70.31117 -148.86662 11831 ft 358 kts 292°
2026-05-01 09:34 70.33103 -149.00239 14060 ft 361 kts 291°
2026-05-01 09:35 70.34106 -149.07113 15054 ft 363 kts 290°
2026-05-01 09:35 70.36101 -149.20832 17077 ft 366 kts 291°
2026-05-01 09:35 70.37114 -149.27843 17995 ft 370 kts 290°
2026-05-01 09:36 70.38133 -149.34917 18904 ft 371 kts 290°
2026-05-01 09:36 70.39144 -149.41961 19869 ft 368 kts 289°
2026-05-01 09:36 70.39808 -149.46605 20514 ft 367 kts 289°
2026-05-01 09:36 70.40805 -149.53606 21393 ft 368 kts 289°
2026-05-01 09:37 70.42130 -149.62947 22501 ft 370 kts 288°
2026-05-01 09:37 70.43781 -149.74640 23780 ft 364 kts 288°
2026-05-01 09:37 70.44757 -149.81574 24002 ft 363 kts 288°
2026-05-01 09:38 70.46710 -149.95547 24020 ft 363 kts 288°
2026-05-01 09:38 70.47676 -150.02502 24024 ft 362 kts 288°
2026-05-01 09:38 70.48645 -150.09496 24027 ft 362 kts 288°
2026-05-01 09:39 70.50555 -150.23371 24027 ft 362 kts 287°
2026-05-01 09:39 70.51511 -150.30351 24025 ft 362 kts 287°
2026-05-01 09:39 70.52467 -150.37356 24022 ft 362 kts 287°
2026-05-01 09:40 70.53422 -150.44375 24025 ft 362 kts 287°
2026-05-01 09:40 70.55309 -150.58335 24025 ft 362 kts 287°
2026-05-01 09:40 70.56255 -150.65373 24036 ft 364 kts 287°
2026-05-01 09:41 70.57200 -150.72428 24034 ft 365 kts 287°
2026-05-01 09:41 70.59091 -150.86627 24027 ft 366 kts 287°
2026-05-01 09:41 70.60032 -150.93741 24024 ft 366 kts 287°
2026-05-01 09:42 70.60970 -151.00852 24027 ft 366 kts 287°
2026-05-01 09:42 70.61895 -151.07887 24027 ft 366 kts 287°
2026-05-01 09:42 70.63758 -151.22145 24024 ft 365 kts 287°
2026-05-01 09:43 70.65605 -151.36400 24027 ft 364 kts 286°
2026-05-01 09:43 70.66525 -151.43537 24027 ft 364 kts 286°
2026-05-01 09:43 70.67430 -151.50589 24027 ft 364 kts 286°
2026-05-01 09:44 70.69254 -151.64898 24046 ft 367 kts 286°
2026-05-01 09:44 70.70176 -151.72175 24036 ft 370 kts 286°
2026-05-01 09:44 70.71093 -151.79434 24027 ft 369 kts 286°
2026-05-01 09:45 70.72005 -151.86686 24029 ft 368 kts 286°
2026-05-01 09:45 70.73807 -152.01088 24030 ft 367 kts 285°
2026-05-01 09:45 70.74710 -152.08351 24030 ft 367 kts 285°
2026-05-01 09:46 70.75611 -152.15634 24032 ft 367 kts 285°
2026-05-01 09:46 70.76507 -152.22902 24028 ft 368 kts 285°
2026-05-01 09:46 70.77398 -152.30158 24030 ft 368 kts 285°
2026-05-01 09:46 70.78288 -152.37438 24026 ft 368 kts 285°
2026-05-01 09:47 70.79176 -152.44736 24024 ft 368 kts 285°
2026-05-01 09:47 70.80063 -152.52050 24029 ft 368 kts 285°
2026-05-01 09:47 70.80933 -152.59260 24031 ft 368 kts 285°
2026-05-01 09:47 70.81816 -152.66603 24046 ft 370 kts 285°
2026-05-01 09:48 70.82698 -152.73976 24040 ft 372 kts 285°
2026-05-01 09:48 70.83583 -152.81402 24037 ft 374 kts 285°
2026-05-01 09:48 70.84468 -152.88854 24033 ft 375 kts 285°
2026-05-01 09:48 70.85354 -152.96350 24033 ft 376 kts 285°
2026-05-01 09:49 70.86230 -153.03784 24030 ft 376 kts 285°
2026-05-01 09:49 70.87112 -153.11305 24017 ft 376 kts 285°
2026-05-01 09:49 70.87990 -153.18826 24017 ft 375 kts 285°
2026-05-01 09:49 70.88859 -153.26301 24010 ft 368 kts 285°
2026-05-01 09:50 70.89701 -153.33538 24007 ft 353 kts 284°
2026-05-01 09:50 70.90511 -153.40535 23760 ft 344 kts 284°
2026-05-01 09:50 70.91294 -153.47352 23430 ft 338 kts 284°
2026-05-01 09:50 70.92053 -153.54003 23044 ft 332 kts 284°
2026-05-01 09:51 70.92806 -153.60623 22646 ft 326 kts 284°
2026-05-01 09:51 70.93544 -153.67140 22282 ft 322 kts 284°
2026-05-01 09:51 70.94275 -153.73632 21862 ft 322 kts 284°
2026-05-01 09:51 70.95007 -153.80151 21462 ft 323 kts 284°
2026-05-01 09:52 70.95735 -153.86677 21086 ft 336 kts 284°
2026-05-01 09:52 70.96503 -153.93589 20673 ft 347 kts 285°
2026-05-01 09:52 70.97280 -154.00568 20241 ft 344 kts 285°
2026-05-01 09:52 70.98047 -154.07472 19829 ft 339 kts 285°
2026-05-01 09:53 70.98802 -154.14290 19427 ft 335 kts 285°
2026-05-01 09:53 70.99546 -154.21031 19033 ft 331 kts 285°
2026-05-01 09:53 71.00266 -154.27617 18654 ft 328 kts 285°
2026-05-01 09:53 71.00989 -154.34255 18256 ft 325 kts 285°
2026-05-01 09:54 71.01725 -154.40867 17490 ft 331 kts 285°
2026-05-01 09:54 71.02500 -154.47646 16814 ft 336 kts 287°
2026-05-01 09:54 71.03276 -154.54359 16389 ft 331 kts 285°
2026-05-01 09:54 71.04033 -154.60918 15996 ft 328 kts 286°
2026-05-01 09:55 71.04789 -154.67509 15617 ft 324 kts 285°
2026-05-01 09:55 71.05530 -154.74012 15259 ft 321 kts 287°
2026-05-01 09:55 71.06265 -154.80511 14898 ft 322 kts 287°
2026-05-01 09:55 71.07001 -154.87042 14538 ft 324 kts 287°
2026-05-01 09:56 71.07741 -154.93652 14176 ft 329 kts 287°
2026-05-01 09:56 71.08496 -155.00417 13804 ft 335 kts 287°
2026-05-01 09:56 71.09242 -155.07112 13367 ft 332 kts 287°
2026-05-01 09:56 71.09986 -155.13821 12979 ft 327 kts 287°
2026-05-01 09:57 71.10717 -155.20433 12588 ft 323 kts 287°
2026-05-01 09:57 71.11437 -155.26976 12225 ft 319 kts 287°
2026-05-01 09:57 71.12144 -155.33412 11870 ft 315 kts 287°
2026-05-01 09:57 71.12833 -155.39725 11519 ft 313 kts 287°
2026-05-01 09:58 71.13529 -155.46133 11181 ft 315 kts 288°
2026-05-01 09:58 71.14229 -155.52607 10817 ft 317 kts 287°
2026-05-01 09:58 71.14929 -155.59109 10518 ft 317 kts 288°
2026-05-01 09:58 71.15607 -155.65412 10370 ft 308 kts 287°
2026-05-01 09:59 71.16271 -155.71613 10221 ft 298 kts 287°
2026-05-01 09:59 71.16913 -155.77623 10089 ft 288 kts 287°
2026-05-01 09:59 71.17529 -155.83401 9946 ft 280 kts 287°
2026-05-01 09:59 71.18136 -155.89139 9654 ft 277 kts 287°
2026-05-01 10:00 71.18733 -155.94799 9372 ft 275 kts 288°
2026-05-01 10:00 71.19236 -156.00386 9084 ft 271 kts 276°
2026-05-01 10:00 71.19262 -156.06201 8808 ft 268 kts 267°
2026-05-01 10:00 71.19195 -156.11993 8514 ft 266 kts 266°
2026-05-01 10:01 71.19116 -156.17636 8241 ft 264 kts 267°
2026-05-01 10:01 71.19035 -156.23291 8004 ft 261 kts 266°
2026-05-01 10:01 71.18953 -156.28904 7743 ft 259 kts 266°
2026-05-01 10:01 71.18871 -156.34474 7480 ft 257 kts 266°
2026-05-01 10:02 71.18782 -156.39977 7267 ft 254 kts 267°
2026-05-01 10:02 71.18691 -156.45396 7030 ft 256 kts 266°
2026-05-01 10:02 71.18594 -156.50991 6799 ft 262 kts 266°
2026-05-01 10:02 71.18489 -156.56689 6565 ft 267 kts 266°
2026-05-01 10:03 71.18386 -156.62417 6310 ft 264 kts 265°
2026-05-01 10:03 71.18280 -156.68066 6048 ft 261 kts 266°
2026-05-01 10:03 71.18176 -156.73582 5826 ft 257 kts 266°
2026-05-01 10:03 71.18068 -156.79149 5608 ft 253 kts 266°
2026-05-01 10:04 71.17961 -156.84475 5402 ft 250 kts 265°
2026-05-01 10:04 71.17855 -156.89851 5199 ft 251 kts 266°
2026-05-01 10:04 71.17744 -156.95318 5023 ft 258 kts 266°
2026-05-01 10:04 71.17635 -157.00941 4828 ft 264 kts 265°
2026-05-01 10:05 71.17527 -157.06604 4622 ft 260 kts 266°
2026-05-01 10:05 71.17421 -157.12227 4106 ft 268 kts 265°
2026-05-01 10:05 71.17311 -157.18063 3686 ft 271 kts 266°
2026-05-01 10:05 71.17194 -157.23886 3335 ft 271 kts 265°
2026-05-01 10:06 71.17078 -157.29671 3070 ft 267 kts 265°
2026-05-01 10:06 71.16968 -157.35311 2795 ft 264 kts 266°
2026-05-01 10:06 71.17173 -157.40918 2498 ft 264 kts 294°
2026-05-01 10:06 71.18344 -157.45077 2230 ft 255 kts 333°
2026-05-01 10:07 71.20017 -157.46277 2129 ft 246 kts
2026-05-01 10:07 71.21698 -157.45788 2018 ft 244 kts 21°
2026-05-01 10:07 71.23244 -157.43764 1998 ft 239 kts 30°
2026-05-01 10:07 71.24740 -157.41568 1985 ft 236 kts 30°
2026-05-01 10:08 71.27640 -157.37103 1979 ft 229 kts 42°
2026-05-01 10:08 71.28444 -157.33089 1996 ft 219 kts 83°
2026-05-01 10:08 71.28464 -157.28371 1981 ft 219 kts 92°
2026-05-01 10:09 71.28448 -157.23602 1877 ft 218 kts 91°
2026-05-01 10:09 71.28445 -157.19007 1757 ft 209 kts 91°
2026-05-01 10:09 71.28450 -157.14684 1709 ft 190 kts 91°
2026-05-01 10:09 71.28457 -157.10783 1675 ft 170 kts 91°
2026-05-01 10:10 71.28465 -157.07361 1668 ft 145 kts 91°
2026-05-01 10:10 71.28469 -157.04448 1616 ft 126 kts 91°
2026-05-01 10:10 71.28476 -156.99214 1285 ft 117 kts 91°
2026-05-01 10:11 71.28478 -156.96683 1124 ft 118 kts 90°
2026-05-01 10:11 71.28480 -156.94149 958 ft 118 kts 90°
2026-05-01 10:11 71.28480 -156.91594 811 ft 117 kts 89°
2026-05-01 10:11 71.28482 -156.88994 657 ft 120 kts 89°
2026-05-01 10:12 71.28495 -156.86430 521 ft 118 kts 88°
2026-05-01 10:12 71.28500 -156.84704 385 ft 118 kts 88°
2026-05-01 10:12 71.28524 -156.78637 55 ft 120 kts 89°
2026-05-01 10:13 71.28528 -156.76358 44 ft 79 kts 90°
2026-05-01 10:13 71.28527 -156.75303 48 ft 20 kts 90°
2026-05-01 10:13 71.28526 -156.74866 44 ft 20 kts 90°
2026-05-01 10:14 71.28534 -156.74039 49 ft 19 kts 82°
2026-05-01 10:14 71.28534 -156.73813 49 ft 6 kts 132°
2026-05-01 10:14 71.28506 -156.73835 50 ft 3 kts 238°
2026-05-01 10:14 71.28515 -156.73952 49 ft 10 kts 291°
2026-05-01 10:15 71.28528 -156.74281 47 ft 20 kts 270°
2026-05-01 10:15 71.28523 -156.74753 45 ft 22 kts 270°
2026-05-01 10:15 71.28525 -156.75221 48 ft 21 kts 270°
2026-05-01 10:15 71.28540 -156.75546 49 ft 13 kts 310°
2026-05-01 10:16 71.28631 -156.75629 47 ft 13 kts 359°
2026-05-01 10:16 71.28684 -156.75802 45 ft 13 kts 271°
2026-05-01 10:16 71.28684 -156.76429 46 ft 18 kts 270°
2026-05-01 10:17 71.28685 -156.76874 46 ft 23 kts 270°
2026-05-01 10:17 71.28685 -156.77576 46 ft 4 kts 270°
2026-05-01 10:17 71.28699 -156.77637 43 ft 3 kts 341°
2026-05-01 10:18 71.28717 -156.77525 46 ft 0 kts 87°